TimeCST,TemperatureF,Dew PointF,Humidity,Sea Level PressureIn,VisibilityMPH,Wind Direction,Wind SpeedMPH,Gust SpeedMPH,PrecipitationIn,Events,Conditions,WindDirDegrees,DateUTC
12:53 AM,14.0,8.1,77,30.44,10.0,West,4.6,-,N/A,,Clear,260,2013-01-15 06:53:00
1:53 AM,14.0,8.1,77,30.45,10.0,West,3.5,-,N/A,,Clear,260,2013-01-15 07:53:00
2:53 AM,14.0,8.1,77,30.45,10.0,WSW,4.6,-,N/A,,Clear,250,2013-01-15 08:53:00
3:53 AM,12.9,7.0,77,30.43,10.0,WSW,4.6,-,N/A,,Clear,250,2013-01-15 09:53:00
4:53 AM,12.0,7.0,80,30.42,10.0,West,4.6,-,N/A,,Clear,270,2013-01-15 10:53:00
6:53 AM,15.1,9.0,77,30.43,10.0,SW,3.5,-,N/A,,Clear,230,2013-01-15 12:53:00
7:53 AM,12.9,8.1,81,30.43,6.0,Calm,Calm,-,N/A,,Haze,0,2013-01-15 13:53:00
8:53 AM,19.0,12.0,74,30.44,8.0,SW,3.5,-,N/A,,Clear,230,2013-01-15 14:53:00
9:53 AM,24.1,14.0,65,30.44,10.0,SSW,3.5,-,N/A,,Clear,210,2013-01-15 15:53:00
10:53 AM,27.0,12.9,56,30.41,10.0,SW,4.6,-,N/A,,Clear,220,2013-01-15 16:53:00
11:53 AM,28.0,12.9,53,30.38,10.0,South,9.2,-,N/A,,Clear,190,2013-01-15 17:53:00
12:53 PM,30.0,12.0,47,30.34,10.0,SSW,8.1,-,N/A,,Clear,200,2013-01-15 18:53:00
1:53 PM,30.0,9.0,41,30.30,10.0,SW,6.9,-,N/A,,Clear,220,2013-01-15 19:53:00
2:53 PM,30.0,12.0,47,30.30,10.0,Variable,3.5,-,N/A,,Clear,0,2013-01-15 20:53:00
3:53 PM,30.0,12.0,47,30.30,10.0,SW,6.9,-,N/A,,Clear,230,2013-01-15 21:53:00
4:53 PM,26.1,12.0,55,30.30,10.0,WSW,6.9,-,N/A,,Clear,250,2013-01-15 22:53:00
5:53 PM,21.9,12.9,68,30.29,10.0,WSW,4.6,-,N/A,,Scattered Clouds,250,2013-01-15 23:53:00
6:53 PM,19.9,12.0,71,30.27,10.0,WSW,5.8,-,N/A,,Clear,250,2013-01-16 00:53:00
7:53 PM,19.9,10.9,68,30.22,10.0,WSW,4.6,-,N/A,,Clear,240,2013-01-16 01:53:00
8:53 PM,19.0,10.9,71,30.20,10.0,WSW,4.6,-,N/A,,Clear,240,2013-01-16 02:53:00
9:53 PM,16.0,10.0,77,30.18,10.0,West,4.6,-,N/A,,Clear,260,2013-01-16 03:53:00
10:53 PM,18.0,10.9,74,30.15,10.0,SW,3.5,-,N/A,,Clear,230,2013-01-16 04:53:00